| time (UTC) | temp C | wind direction | speed KPH | gust KPH | rain 1hr cm | rain 24hr cm | rain mn cm | humidity % | barometer mb |
| 20260906160642 | 25 | 134 | 3.2 | 11.3 | 0.00 | 0.00 | 0.00 | 41 | 996.7 |
| 20260906160136 | 25 | 119 | 3.2 | 11.3 | 0.00 | 0.00 | 0.00 | 40 | 996.8 |
| 20260906155630 | 25 | 173 | 3.2 | 11.3 | 0.00 | 0.00 | 0.00 | 42 | 996.7 |
| 20260906154619 | 25 | 123 | 4.8 | 9.7 | 0.00 | 0.00 | 0.00 | 41 | 996.8 |
| 20260906154118 | 25 | 131 | 3.2 | 8.0 | 0.00 | 0.00 | 0.00 | 42 | 996.8 |
| 20260906153616 | 24 | 123 | 4.8 | 11.3 | 0.00 | 0.00 | 0.00 | 42 | 996.9 |
| 20260906153117 | 24 | 123 | 4.8 | 11.3 | 0.00 | 0.00 | 0.00 | 41 | 996.8 |
| 20260906152616 | 25 | 67 | 3.2 | 11.3 | 0.00 | 0.00 | 0.00 | 41 | 996.7 |
| 20260906152117 | 24 | 140 | 3.2 | 6.4 | 0.00 | 0.00 | 0.00 | 43 | 996.6 |
| 20260906151614 | 24 | 80 | 3.2 | 12.9 | 0.00 | 0.00 | 0.00 | 43 | 996.7 |
| 20260906151114 | 23 | 150 | 3.2 | 12.9 | 0.00 | 0.00 | 0.00 | 43 | 996.5 |
| 20260906150614 | 23 | 5 | 4.8 | 11.3 | 0.00 | 0.00 | 0.00 | 45 | 996.6 |
| 20260906145614 | 23 | 112 | 3.2 | 11.3 | 0.00 | 0.00 | 0.00 | 45 | 996.6 |
| 20260906145115 | 23 | 45 | 3.2 | 9.7 | 0.00 | 0.00 | 0.00 | 45 | 996.6 |
| 20260906144614 | 23 | 144 | 3.2 | 11.3 | 0.00 | 0.00 | 0.00 | 45 | 996.5 |
| 20260906144114 | 23 | 82 | 1.6 | 11.3 | 0.00 | 0.00 | 0.00 | 46 | 996.4 |
| 20260906143614 | 22 | 76 | 3.2 | 11.3 | 0.00 | 0.00 | 0.00 | 46 | 996.3 |
| 20260906143114 | 22 | 134 | 3.2 | 11.3 | 0.00 | 0.00 | 0.00 | 46 | 996.3 |
| 20260906142614 | 22 | 133 | 3.2 | 6.4 | 0.00 | 0.00 | 0.00 | 47 | 996.3 |
| 20260906142115 | 22 | 340 | 3.2 | 6.4 | 0.00 | 0.00 | 0.00 | 47 | 996.4 |
| 20260906141608 | 22 | 98 | 1.6 | 6.4 | 0.00 | 0.00 | 0.00 | 47 | 996.4 |
| 20260906141103 | 22 | 103 | 1.6 | 6.4 | 0.00 | 0.00 | 0.00 | 48 | 996.5 |
| 20260906140557 | 21 | 113 | 1.6 | 4.8 | 0.00 | 0.00 | 0.00 | 49 | 996.4 |
| 20260906140050 | 21 | 125 | 1.6 | 4.8 | 0.00 | 0.00 | 0.00 | 49 | 996.5 |
| 20260906135544 | 21 | 107 | 1.6 | 6.4 | 0.00 | 0.00 | 0.00 | 50 | 996.5 |
| 20260906135040 | 20 | 75 | 1.6 | 6.4 | 0.00 | 0.00 | 0.00 | 50 | 996.5 |
| 20260906134540 | 20 | 101 | 1.6 | 6.4 | 0.00 | 0.00 | 0.00 | 50 | 996.5 |
| 20260906134040 | 20 | 122 | 1.6 | 6.4 | 0.00 | 0.00 | 0.00 | 50 | 996.6 |
| 20260906133540 | 20 | 123 | 0.0 | 4.8 | 0.00 | 0.00 | 0.00 | 50 | 996.7 |
| 20260906132540 | 20 | 112 | 1.6 | 4.8 | 0.00 | 0.00 | 0.00 | 50 | 996.6 |
| 20260906132040 | 20 | 111 | 1.6 | 4.8 | 0.00 | 0.00 | 0.00 | 50 | 996.7 |
| 20260906131539 | 20 | 106 | 1.6 | 6.4 | 0.00 | 0.00 | 0.00 | 50 | 996.6 |
| 20260906131040 | 20 | 98 | 0.0 | 6.4 | 0.00 | 0.00 | 0.00 | 50 | 996.6 |
| 20260906130540 | 20 | 180 | 0.0 | 1.6 | 0.00 | 0.00 | 0.00 | 50 | 996.6 |
| 20260906125536 | 20 | 196 | 0.0 | 3.2 | 0.00 | 0.00 | 0.00 | 50 | 996.6 |
| 20260906125036 | 20 | 161 | 0.0 | 0.0 | 0.00 | 0.00 | 0.00 | 50 | 996.6 |
| 20260906124536 | 20 | 161 | 0.0 | 4.8 | 0.00 | 0.00 | 0.00 | 50 | 996.7 |
| 20260906124037 | 20 | 130 | 0.0 | 4.8 | 0.00 | 0.00 | 0.00 | 49 | 996.6 |
| 20260906123536 | 20 | 132 | 1.6 | 6.4 | 0.00 | 0.00 | 0.00 | 50 | 996.4 |
| 20260906123036 | 19 | 132 | 1.6 | 6.4 | 0.00 | 0.00 | 0.00 | 49 | 996.4 |
| 20260906122536 | 19 | 236 | 1.6 | 6.4 | 0.00 | 0.00 | 0.00 | 50 | 996.2 |
| 20260906122037 | 19 | 173 | 3.2 | 9.7 | 0.00 | 0.00 | 0.00 | 50 | 996.1 |
| 20260906121037 | 19 | 154 | 4.8 | 11.3 | 0.00 | 0.00 | 0.00 | 50 | 995.9 |
| 20260906120536 | 19 | 119 | 3.2 | 11.3 | 0.00 | 0.00 | 0.00 | 50 | 995.9 |
| 20260906120037 | 19 | 155 | 4.8 | 14.5 | 0.00 | 0.00 | 0.00 | 50 | 995.9 |
| 20260906115536 | 19 | 175 | 6.4 | 14.5 | 0.00 | 0.00 | 0.00 | 50 | 995.8 |
| 20260906115036 | 19 | 109 | 4.8 | 11.3 | 0.00 | 0.00 | 0.00 | 50 | 995.7 |
| 20260906114536 | 19 | 100 | 3.2 | 11.3 | 0.00 | 0.00 | 0.00 | 50 | 995.7 |
| 20260906114035 | 18 | 88 | 3.2 | 9.7 | 0.00 | 0.00 | 0.00 | 51 | 995.8 |
| 20260906113536 | 19 | 128 | 3.2 | 9.7 | 0.00 | 0.00 | 0.00 | 51 | 995.8 |
| 20260906113029 | 19 | 132 | 3.2 | 9.7 | 0.00 | 0.00 | 0.00 | 51 | 995.8 |
| 20260906112017 | 18 | 121 | 4.8 | 11.3 | 0.00 | 0.00 | 0.00 | 51 | 995.6 |
| 20260906111516 | 19 | 94 | 4.8 | 12.9 | 0.00 | 0.00 | 0.00 | 51 | 995.6 |
| 20260906111016 | 19 | 101 | 3.2 | 12.9 | 0.00 | 0.00 | 0.00 | 51 | 995.6 |
| 20260906110514 | 19 | 144 | 1.6 | 6.4 | 0.00 | 0.00 | 0.00 | 51 | 995.6 |
| 20260906110014 | 19 | 86 | 1.6 | 9.7 | 0.00 | 0.00 | 0.00 | 51 | 995.5 |
| 20260906105514 | 19 | 77 | 3.2 | 11.3 | 0.00 | 0.00 | 0.00 | 51 | 995.4 |
| 20260906104511 | 19 | 115 | 3.2 | 14.5 | 0.00 | 0.00 | 0.00 | 51 | 995.4 |
| 20260906104012 | 19 | 98 | 3.2 | 14.5 | 0.00 | 0.00 | 0.00 | 51 | 995.3 |
| 20260906103510 | 19 | 119 | 3.2 | 14.5 | 0.00 | 0.00 | 0.00 | 51 | 995.5 |
| 20260906103009 | 19 | 89 | 3.2 | 14.5 | 0.00 | 0.00 | 0.00 | 51 | 995.4 |
| 20260906102006 | 20 | 107 | 1.6 | 3.2 | 0.00 | 0.00 | 0.00 | 51 | 995.1 |
| 20260906101506 | 20 | 100 | 1.6 | 11.3 | 0.00 | 0.00 | 0.00 | 52 | 995.0 |
| 20260906100506 | 20 | 112 | 3.2 | 12.9 | 0.00 | 0.00 | 0.00 | 52 | 994.7 |
| 20260906100004 | 20 | 115 | 3.2 | 12.9 | 0.00 | 0.00 | 0.00 | 52 | 994.7 |
| 20260906095502 | 20 | 149 | 3.2 | 11.3 | 0.00 | 0.00 | 0.00 | 53 | 994.6 |
| 20260906095001 | 20 | 175 | 4.8 | 12.9 | 0.00 | 0.00 | 0.00 | 53 | 994.7 |
| 20260906093955 | 20 | 105 | 1.6 | 4.8 | 0.00 | 0.00 | 0.00 | 53 | 994.6 |
| 20260906093450 | 20 | 103 | 1.6 | 6.4 | 0.00 | 0.00 | 0.00 | 53 | 994.7 |
| 20260906092942 | 20 | 102 | 3.2 | 6.4 | 0.00 | 0.00 | 0.00 | 53 | 994.6 |
| 20260906092437 | 20 | 101 | 3.2 | 9.7 | 0.00 | 0.00 | 0.00 | 53 | 994.6 |
| 20260906091931 | 20 | 103 | 3.2 | 6.4 | 0.00 | 0.00 | 0.00 | 53 | 994.7 |
| 20260906091425 | 20 | 107 | 3.2 | 6.4 | 0.00 | 0.00 | 0.00 | 53 | 994.7 |
| 20260906090919 | 20 | 130 | 3.2 | 6.4 | 0.00 | 0.00 | 0.00 | 53 | 994.7 |
| 20260906090413 | 20 | 121 | 3.2 | 9.7 | 0.00 | 0.00 | 0.00 | 53 | 994.9 |
| 20260906085908 | 20 | 81 | 3.2 | 11.3 | 0.00 | 0.00 | 0.00 | 53 | 994.8 |
| 20260906085404 | 20 | 117 | 3.2 | 11.3 | 0.00 | 0.00 | 0.00 | 53 | 994.8 |
| 20260906084349 | 20 | 118 | 3.2 | 11.3 | 0.00 | 0.00 | 0.00 | 53 | 994.6 |
| 20260906083843 | 20 | 97 | 3.2 | 8.0 | 0.00 | 0.00 | 0.00 | 53 | 994.5 |
| 20260906083337 | 20 | 128 | 4.8 | 9.7 | 0.00 | 0.00 | 0.00 | 53 | 994.5 |
| 20260906082831 | 20 | 128 | 3.2 | 9.7 | 0.00 | 0.00 | 0.00 | 53 | 994.7 |
| 20260906082325 | 20 | 132 | 1.6 | 6.4 | 0.00 | 0.00 | 0.00 | 53 | 994.7 |
| 20260906081819 | 20 | 140 | 3.2 | 9.7 | 0.00 | 0.00 | 0.00 | 53 | 994.6 |
| 20260906081313 | 20 | 114 | 3.2 | 9.7 | 0.00 | 0.00 | 0.00 | 53 | 994.6 |
| 20260906080301 | 21 | 119 | 1.6 | 9.7 | 0.00 | 0.00 | 0.00 | 53 | 994.7 |
| 20260906075756 | 21 | 148 | 1.6 | 9.7 | 0.00 | 0.00 | 0.00 | 53 | 994.9 |
| 20260906074744 | 21 | 103 | 3.2 | 9.7 | 0.00 | 0.00 | 0.00 | 53 | 994.9 |
| 20260906074237 | 21 | 124 | 1.6 | 9.7 | 0.00 | 0.00 | 0.00 | 53 | 994.8 |
| 20260906073731 | 21 | 104 | 3.2 | 6.4 | 0.00 | 0.00 | 0.00 | 53 | 994.8 |
| 20260906073225 | 21 | 104 | 3.2 | 9.7 | 0.00 | 0.00 | 0.00 | 52 | 994.8 |
| 20260906072720 | 21 | 79 | 3.2 | 12.9 | 0.00 | 0.00 | 0.00 | 53 | 994.7 |
| 20260906072213 | 21 | 133 | 4.8 | 12.9 | 0.00 | 0.00 | 0.00 | 52 | 994.7 |
| 20260906071202 | 21 | 74 | 4.8 | 14.5 | 0.00 | 0.00 | 0.00 | 53 | 994.6 |
| 20260906070656 | 21 | 119 | 4.8 | 11.3 | 0.00 | 0.00 | 0.00 | 52 | 994.7 |
| 20260906070150 | 21 | 122 | 6.4 | 14.5 | 0.00 | 0.00 | 0.00 | 52 | 994.8 |
| 20260906065644 | 21 | 101 | 6.4 | 14.5 | 0.00 | 0.00 | 0.00 | 52 | 994.9 |
| 20260906064632 | 21 | 111 | 4.8 | 11.3 | 0.00 | 0.00 | 0.00 | 51 | 994.9 |
| 20260906063620 | 21 | 114 | 4.8 | 12.9 | 0.00 | 0.00 | 0.00 | 51 | 995.0 |
| 20260906063114 | 22 | 120 | 6.4 | 16.1 | 0.00 | 0.00 | 0.00 | 51 | 995.0 |
| 20260906062608 | 22 | 125 | 6.4 | 16.1 | 0.00 | 0.00 | 0.00 | 50 | 995.1 |
| 20260906061601 | 22 | 142 | 6.4 | 17.7 | 0.00 | 0.00 | 0.00 | 50 | 995.2 |
| 20260906061059 | 22 | 91 | 6.4 | 17.7 | 0.00 | 0.00 | 0.00 | 49 | 995.1 |
| 20260906060559 | 22 | 122 | 8.0 | 17.7 | 0.00 | 0.00 | 0.00 | 50 | 995.2 |
| 20260906055600 | 22 | 109 | 8.0 | 14.5 | 0.00 | 0.00 | 0.00 | 50 | 995.1 |
| 20260906055059 | 22 | 120 | 8.0 | 19.3 | 0.00 | 0.00 | 0.00 | 51 | 995.1 |
| 20260906054557 | 22 | 114 | 6.4 | 19.3 | 0.00 | 0.00 | 0.00 | 51 | 995.1 |
| 20260906053055 | 22 | 105 | 4.8 | 14.5 | 0.00 | 0.00 | 0.00 | 52 | 995.1 |
| 20260906051555 | 23 | 129 | 6.4 | 12.9 | 0.00 | 0.00 | 0.00 | 51 | 994.9 |
| 20260906051055 | 23 | 79 | 4.8 | 12.9 | 0.00 | 0.00 | 0.00 | 51 | 994.8 |
| 20260906050556 | 23 | 95 | 1.6 | 11.3 | 0.00 | 0.00 | 0.00 | 51 | 994.8 |
| 20260906050054 | 23 | 80 | 3.2 | 9.7 | 0.00 | 0.00 | 0.00 | 50 | 994.7 |
| 20260906045553 | 23 | 100 | 1.6 | 9.7 | 0.00 | 0.00 | 0.00 | 50 | 994.8 |
| 20260906045053 | 23 | 92 | 1.6 | 9.7 | 0.00 | 0.00 | 0.00 | 50 | 994.7 |
| 20260906044547 | 23 | 53 | 3.2 | 8.0 | 0.00 | 0.00 | 0.00 | 50 | 994.8 |
| 20260906044041 | 23 | 48 | 3.2 | 8.0 | 0.00 | 0.00 | 0.00 | 50 | 994.7 |
| 20260906043535 | 23 | 44 | 3.2 | 9.7 | 0.00 | 0.00 | 0.00 | 49 | 994.7 |
| 20260906043029 | 23 | 24 | 3.2 | 9.7 | 0.00 | 0.00 | 0.00 | 49 | 994.9 |
| 20260906042523 | 23 | 36 | 1.6 | 6.4 | 0.00 | 0.00 | 0.00 | 49 | 994.9 |
| 20260906042017 | 23 | 49 | 3.2 | 12.9 | 0.00 | 0.00 | 0.00 | 49 | 994.8 |
| 20260906041511 | 23 | 44 | 3.2 | 12.9 | 0.00 | 0.00 | 0.00 | 49 | 994.7 |
| 20260906041005 | 23 | 43 | 3.2 | 9.7 | 0.00 | 0.00 | 0.00 | 49 | 994.4 |
| 20260906040500 | 23 | 59 | 3.2 | 9.7 | 0.00 | 0.00 | 0.00 | 49 | 994.5 |
| 20260906035953 | 23 | 83 | 3.2 | 9.7 | 0.00 | 0.00 | 0.00 | 48 | 994.4 |
| 20260906035447 | 23 | 32 | 3.2 | 9.7 | 0.00 | 0.00 | 0.00 | 48 | 994.3 |
| 20260906034941 | 23 | 19 | 1.6 | 8.0 | 0.00 | 0.00 | 0.00 | 48 | 994.1 |
| 20260906034435 | 24 | 90 | 1.6 | 8.0 | 0.00 | 0.00 | 0.00 | 48 | 993.8 |
| 20260906033929 | 24 | 35 | 3.2 | 8.0 | 0.00 | 0.00 | 0.00 | 48 | 993.8 |
| 20260906033424 | 24 | 30 | 3.2 | 9.7 | 0.00 | 0.00 | 0.00 | 48 | 993.8 |
| 20260906032917 | 24 | 75 | 3.2 | 9.7 | 0.00 | 0.00 | 0.00 | 47 | 993.8 |
| 20260906032411 | 24 | 38 | 3.2 | 8.0 | 0.00 | 0.00 | 0.00 | 47 | 993.8 |
| 20260906031905 | 24 | 33 | 3.2 | 8.0 | 0.00 | 0.00 | 0.00 | 47 | 993.7 |
| 20260906031401 | 24 | 32 | 1.6 | 12.9 | 0.00 | 0.00 | 0.00 | 47 | 993.6 |
| 20260906030853 | 24 | 68 | 3.2 | 12.9 | 0.00 | 0.00 | 0.00 | 47 | 993.7 |
| 20260906030347 | 24 | 34 | 4.8 | 12.9 | 0.00 | 0.00 | 0.00 | 47 | 993.5 |
| 20260906025841 | 24 | 38 | 3.2 | 12.9 | 0.00 | 0.00 | 0.00 | 47 | 993.5 |
| 20260906025335 | 24 | 53 | 3.2 | 6.4 | 0.00 | 0.00 | 0.00 | 47 | 993.4 |
| 20260906024324 | 24 | 32 | 3.2 | 8.0 | 0.00 | 0.00 | 0.00 | 47 | 993.6 |
| 20260906022805 | 25 | 51 | 1.6 | 8.0 | 0.00 | 0.00 | 0.00 | 46 | 993.3 |
| 20260906022300 | 25 | 38 | 1.6 | 8.0 | 0.00 | 0.00 | 0.00 | 46 | 993.3 |
| 20260906021248 | 25 | 71 | 1.6 | 4.8 | 0.00 | 0.00 | 0.00 | 47 | 993.1 |
| 20260906020742 | 25 | 63 | 1.6 | 6.4 | 0.00 | 0.00 | 0.00 | 46 | 992.9 |
| 20260906020235 | 25 | 124 | 3.2 | 6.4 | 0.00 | 0.00 | 0.00 | 46 | 992.8 |
| 20260906015223 | 25 | 126 | 3.2 | 6.4 | 0.00 | 0.00 | 0.00 | 47 | 992.7 |
| 20260906014719 | 25 | 82 | 1.6 | 6.4 | 0.00 | 0.00 | 0.00 | 46 | 992.8 |
| 20260906014220 | 25 | 51 | 1.6 | 9.7 | 0.00 | 0.00 | 0.00 | 46 | 992.6 |
| 20260906013720 | 25 | 53 | 1.6 | 9.7 | 0.00 | 0.00 | 0.00 | 46 | 992.6 |
| 20260906012719 | 25 | 76 | 1.6 | 9.7 | 0.00 | 0.00 | 0.00 | 46 | 992.5 |
| 20260906011719 | 25 | 91 | 1.6 | 8.0 | 0.00 | 0.00 | 0.00 | 46 | 992.3 |
| 20260906011217 | 25 | 111 | 1.6 | 8.0 | 0.00 | 0.00 | 0.00 | 46 | 992.2 |
| 20260906010715 | 25 | 77 | 1.6 | 4.8 | 0.00 | 0.00 | 0.00 | 46 | 992.2 |
| 20260906010213 | 25 | 103 | 3.2 | 11.3 | 0.00 | 0.00 | 0.00 | 46 | 992.1 |
| 20260906005711 | 25 | 100 | 4.8 | 12.9 | 0.00 | 0.00 | 0.00 | 46 | 992.0 |
| 20260906005209 | 25 | 96 | 3.2 | 12.9 | 0.00 | 0.00 | 0.00 | 45 | 992.1 |
| 20260906004708 | 25 | 104 | 3.2 | 9.7 | 0.00 | 0.00 | 0.00 | 45 | 992.0 |
| 20260906004207 | 25 | 82 | 3.2 | 8.0 | 0.00 | 0.00 | 0.00 | 45 | 992.1 |
| 20260906003705 | 25 | 74 | 3.2 | 8.0 | 0.00 | 0.00 | 0.00 | 45 | 992.1 |
| 20260906003205 | 26 | 62 | 3.2 | 9.7 | 0.00 | 0.00 | 0.00 | 44 | 992.1 |
| 20260906002703 | 26 | 74 | 3.2 | 9.7 | 0.00 | 0.00 | 0.00 | 44 | 992.3 |
| 20260906002203 | 26 | 46 | 3.2 | 9.7 | 0.00 | 0.00 | 0.00 | 44 | 992.3 |
| 20260906001703 | 26 | 80 | 3.2 | 9.7 | 0.00 | 0.00 | 0.00 | 43 | 992.4 |
| 20260906001157 | 26 | 90 | 3.2 | 9.7 | 0.00 | 0.00 | 0.00 | 43 | 992.3 |
| 20260906000651 | 26 | 105 | 3.2 | 9.7 | 0.00 | 0.00 | 0.00 | 43 | 992.4 |
| 20260905235639 | 26 | 26 | 3.2 | 9.7 | 0.00 | 0.00 | 0.00 | 42 | 992.5 |
| 20260905234627 | 26 | 96 | 4.8 | 12.9 | 0.00 | 0.00 | 0.00 | 42 | 992.4 |
| 20260905234127 | 26 | 68 | 4.8 | 14.5 | 0.00 | 0.00 | 0.00 | 42 | 992.4 |
| 20260905233627 | 26 | 88 | 4.8 | 14.5 | 0.00 | 0.00 | 0.00 | 42 | 992.3 |
| 20260905233127 | 26 | 28 | 3.2 | 14.5 | 0.00 | 0.00 | 0.00 | 42 | 992.4 |
| 20260905232627 | 26 | 23 | 3.2 | 14.5 | 0.00 | 0.00 | 0.00 | 41 | 992.5 |
| 20260905232127 | 26 | 55 | 4.8 | 14.5 | 0.00 | 0.00 | 0.00 | 41 | 992.5 |
| 20260905231627 | 26 | 47 | 6.4 | 16.1 | 0.00 | 0.03 | 0.00 | 41 | 992.4 |
| 20260905231127 | 26 | 92 | 6.4 | 16.1 | 0.00 | 0.03 | 0.00 | 40 | 992.4 |
| 20260905230627 | 26 | 133 | 6.4 | 22.5 | 0.00 | 0.03 | 0.00 | 40 | 992.5 |
| 20260905230127 | 26 | 128 | 8.0 | 22.5 | 0.00 | 0.03 | 0.00 | 40 | 992.5 |
| 20260905225623 | 27 | 117 | 6.4 | 17.7 | 0.00 | 0.03 | 0.00 | 39 | 992.4 |
| 20260905225124 | 27 | 103 | 4.8 | 16.1 | 0.00 | 0.03 | 0.00 | 39 | 992.5 |
| 20260905224622 | 27 | 41 | 4.8 | 20.9 | 0.00 | 0.03 | 0.00 | 38 | 992.4 |
| 20260905224123 | 27 | 36 | 6.4 | 20.9 | 0.00 | 0.03 | 0.00 | 39 | 992.5 |
| 20260905223623 | 27 | 25 | 6.4 | 24.1 | 0.00 | 0.03 | 0.00 | 39 | 992.5 |
| 20260905223123 | 28 | 68 | 4.8 | 24.1 | 0.00 | 0.03 | 0.00 | 38 | 992.5 |
| 20260905222622 | 27 | 62 | 6.4 | 17.7 | 0.00 | 0.03 | 0.00 | 38 | 992.4 |
| 20260905221623 | 27 | 49 | 8.0 | 16.1 | 0.00 | 0.03 | 0.00 | 39 | 992.2 |
| 20260905221123 | 28 | 91 | 6.4 | 17.7 | 0.00 | 0.03 | 0.00 | 39 | 992.3 |
| 20260905220623 | 28 | 88 | 8.0 | 24.1 | 0.00 | 0.03 | 0.00 | 38 | 992.3 |
| 20260905220124 | 28 | 53 | 8.0 | 24.1 | 0.00 | 0.03 | 0.00 | 38 | 992.5 |
| 20260905213623 | 28 | 111 | 6.4 | 16.1 | 0.00 | 0.03 | 0.00 | 38 | 992.4 |
| 20260905213123 | 28 | 45 | 6.4 | 19.3 | 0.00 | 0.03 | 0.00 | 38 | 992.3 |
| 20260905212110 | 28 | 13 | 4.8 | 17.7 | 0.00 | 0.03 | 0.00 | 37 | 992.1 |
| 20260905211058 | 28 | 11 | 4.8 | 12.9 | 0.00 | 0.03 | 0.00 | 38 | 992.1 |
| 20260905210552 | 28 | 107 | 4.8 | 12.9 | 0.00 | 0.03 | 0.00 | 38 | 992.3 |
| 20260905210051 | 28 | 28 | 6.4 | 16.1 | 0.00 | 0.03 | 0.00 | 38 | 992.3 |
| 20260905205050 | 28 | 22 | 3.2 | 19.3 | 0.00 | 0.03 | 0.00 | 38 | 992.1 |
| 20260905204550 | 28 | 77 | 3.2 | 14.5 | 0.00 | 0.03 | 0.00 | 39 | 992.2 |
| 20260905204051 | 28 | 128 | 6.4 | 17.7 | 0.00 | 0.03 | 0.00 | 40 | 992.2 |
| 20260905203551 | 28 | 326 | 6.4 | 17.7 | 0.00 | 0.03 | 0.00 | 39 | 992.1 |
| 20260905203049 | 28 | 42 | 4.8 | 16.1 | 0.00 | 0.03 | 0.00 | 38 | 992.2 |
| 20260905202549 | 28 | 55 | 4.8 | 14.5 | 0.00 | 0.03 | 0.00 | 39 | 992.0 |
| 20260905202048 | 28 | 20 | 3.2 | 12.9 | 0.00 | 0.03 | 0.00 | 39 | 992.1 |
| 20260905201548 | 28 | 35 | 4.8 | 12.9 | 0.00 | 0.03 | 0.00 | 40 | 992.5 |
| 20260905201049 | 28 | 44 | 4.8 | 12.9 | 0.00 | 0.03 | 0.00 | 39 | 992.6 |
| 20260905200550 | 28 | 34 | 4.8 | 12.9 | 0.00 | 0.03 | 0.00 | 40 | 992.5 |
| 20260905200048 | 28 | 70 | 4.8 | 12.9 | 0.00 | 0.03 | 0.00 | 40 | 992.5 |
| 20260905195548 | 28 | 71 | 4.8 | 12.9 | 0.00 | 0.03 | 0.00 | 41 | 992.6 |
| 20260905194049 | 27 | 306 | 4.8 | 12.9 | 0.00 | 0.03 | 0.00 | 43 | 992.6 |
| 20260905193543 | 27 | 51 | 4.8 | 12.9 | 0.00 | 0.03 | 0.00 | 44 | 992.8 |
| 20260905193037 | 27 | 15 | 4.8 | 12.9 | 0.00 | 0.03 | 0.00 | 44 | 992.9 |
| 20260905192530 | 27 | 76 | 4.8 | 12.9 | 0.00 | 0.03 | 0.00 | 45 | 992.8 |
| 20260905192025 | 27 | 82 | 4.8 | 11.3 | 0.00 | 0.03 | 0.00 | 45 | 992.7 |
| 20260905191519 | 27 | 105 | 3.2 | 9.7 | 0.00 | 0.03 | 0.00 | 44 | 992.7 |
| 20260905190506 | 26 | 5 | 3.2 | 6.4 | 0.00 | 0.03 | 0.00 | 45 | 992.8 |
| 20260905190001 | 26 | 80 | 4.8 | 12.9 | 0.00 | 0.03 | 0.00 | 46 | 992.9 |
| 20260905185454 | 26 | 33 | 4.8 | 12.9 | 0.00 | 0.03 | 0.00 | 46 | 993.0 |
| 20260905184442 | 26 | 5 | 3.2 | 12.9 | 0.00 | 0.03 | 0.00 | 46 | 993.1 |
| 20260905183936 | 26 | 40 | 3.2 | 12.9 | 0.00 | 0.03 | 0.00 | 46 | 993.0 |
| 20260905183430 | 26 | 42 | 3.2 | 11.3 | 0.00 | 0.03 | 0.00 | 46 | 993.1 |
| 20260905182924 | 26 | 113 | 4.8 | 17.7 | 0.00 | 0.03 | 0.00 | 47 | 993.0 |
| 20260905181912 | 26 | 61 | 4.8 | 11.3 | 0.00 | 0.03 | 0.00 | 46 | 992.9 |
| 20260905181406 | 26 | 86 | 4.8 | 12.9 | 0.00 | 0.03 | 0.00 | 46 | 992.8 |
| 20260905180354 | 26 | 88 | 4.8 | 12.9 | 0.00 | 0.03 | 0.00 | 47 | 992.9 |
| 20260905175848 | 26 | 88 | 6.4 | 12.9 | 0.00 | 0.03 | 0.00 | 47 | 992.9 |
| 20260905175342 | 26 | 107 | 4.8 | 12.9 | 0.00 | 0.03 | 0.00 | 46 | 992.8 |
| 20260905174836 | 26 | 102 | 4.8 | 14.5 | 0.00 | 0.03 | 0.00 | 46 | 992.9 |
| 20260905174333 | 26 | 62 | 4.8 | 14.5 | 0.00 | 0.03 | 0.00 | 47 | 992.9 |
| 20260905173833 | 26 | 56 | 3.2 | 16.1 | 0.00 | 0.03 | 0.00 | 47 | 993.2 |
| 20260905173332 | 26 | 100 | 4.8 | 16.1 | 0.00 | 0.03 | 0.00 | 47 | 993.1 |
| 20260905172832 | 26 | 82 | 6.4 | 16.1 | 0.00 | 0.03 | 0.00 | 47 | 993.0 |
| 20260905172330 | 26 | 84 | 4.8 | 14.5 | 0.00 | 0.03 | 0.00 | 47 | 993.1 |
| 20260905171828 | 26 | 41 | 6.4 | 14.5 | 0.00 | 0.03 | 0.00 | 47 | 993.1 |
| 20260905171328 | 26 | 57 | 6.4 | 14.5 | 0.00 | 0.03 | 0.00 | 46 | 993.2 |
| 20260905170826 | 26 | 34 | 4.8 | 12.9 | 0.00 | 0.03 | 0.00 | 46 | 993.3 |
| 20260905165826 | 26 | 118 | 4.8 | 14.5 | 0.00 | 0.03 | 0.00 | 45 | 993.4 |
| 20260905164825 | 27 | 36 | 3.2 | 9.7 | 0.00 | 0.05 | 0.00 | 45 | 993.5 |
| 20260905164324 | 26 | 86 | 3.2 | 9.7 | 0.00 | 0.05 | 0.00 | 45 | 993.4 |
| 20260905163322 | 26 | 84 | 4.8 | 14.5 | 0.00 | 0.05 | 0.00 | 45 | 993.3 |
| 20260905162822 | 26 | 108 | 4.8 | 14.5 | 0.00 | 0.05 | 0.00 | 46 | 993.4 |
| 20260905162322 | 26 | 44 | 4.8 | 12.9 | 0.00 | 0.05 | 0.00 | 46 | 993.4 |
| 20260905161822 | 26 | 138 | 6.4 | 12.9 | 0.00 | 0.05 | 0.00 | 45 | 993.4 |
| 20260905161323 | 26 | 45 | 6.4 | 17.7 | 0.00 | 0.05 | 0.00 | 45 | 993.5 |